FLOCK 2E-3

Last updated on April 5, 2018, 12:15 a.m. UTC

1 41486U 98067JG  18094.79476049  .09689050  12325-4  99118-3 0  9996
2 41486  51.6109 310.6528 0007377 274.4050  85.6868 16.36992493107762

Satellite is not in orbit.